KJC7047 UERR-UNKL

Flight info

Callsign KJC7047
Flight time 2h 7m
Altitude 34000
Route N0480F340 NUSPO W105 LANAP W339 BARIK W261 OKRIM
Aircraft IL76/H-Q/L

Departure

Time 2026-04-22 03:41
Airport Mirny Airport (UERR)

Arrival

Time 2026-04-22 05:48
Airport Krasnoyarsk International Airport (UNKL)
Time Latitude Longitude Altitude Speed Heading
2026-04-22 03:25 62.52903 114.01654 1165 ft 0 kts 147°
2026-04-22 03:35 62.52880 114.01721 1165 ft 9 kts 99°
2026-04-22 03:35 62.52871 114.01835 1165 ft 14 kts 101°
2026-04-22 03:35 62.52899 114.02073 1165 ft 20 kts 57°
2026-04-22 03:35 62.52987 114.02358 1165 ft 25 kts 56°
2026-04-22 03:36 62.53079 114.02654 1165 ft 21 kts 55°
2026-04-22 03:36 62.53168 114.02932 1165 ft 24 kts 55°
2026-04-22 03:36 62.53268 114.03253 1165 ft 27 kts 57°
2026-04-22 03:36 62.53364 114.03569 1165 ft 25 kts 56°
2026-04-22 03:37 62.53462 114.03888 1165 ft 24 kts 56°
2026-04-22 03:37 62.53549 114.04171 1165 ft 23 kts 56°
2026-04-22 03:37 62.53639 114.04464 1165 ft 23 kts 56°
2026-04-22 03:37 62.53730 114.04754 1165 ft 24 kts 56°
2026-04-22 03:38 62.53825 114.05055 1165 ft 24 kts 56°
2026-04-22 03:38 62.53917 114.05353 1165 ft 23 kts 56°
2026-04-22 03:38 62.54003 114.05632 1165 ft 23 kts 56°
2026-04-22 03:38 62.54087 114.05910 1165 ft 21 kts 54°
2026-04-22 03:39 62.54166 114.06039 1165 ft 6 kts 70°
2026-04-22 03:39 62.54153 114.06071 1165 ft 3 kts 165°
2026-04-22 03:39 62.54137 114.06057 1165 ft 3 kts 217°
2026-04-22 03:39 62.54125 114.06027 1165 ft 0 kts 235°
2026-04-22 03:40 62.54125 114.06026 1165 ft 0 kts 235°
2026-04-22 03:40 62.54082 114.05889 1165 ft 37 kts 236°
2026-04-22 03:40 62.53807 114.05018 1165 ft 102 kts 236°
2026-04-22 03:41 62.53322 114.03382 1194 ft 150 kts 236°
2026-04-22 03:41 62.52738 114.01423 1609 ft 160 kts 236°
2026-04-22 03:41 62.52152 113.99369 2069 ft 158 kts 241°
2026-04-22 03:41 62.51843 113.97096 2428 ft 158 kts 256°
2026-04-22 03:42 62.51573 113.94752 2808 ft 169 kts 253°
2026-04-22 03:42 62.51204 113.92189 3172 ft 194 kts 251°
2026-04-22 03:42 62.50708 113.89067 3485 ft 242 kts 251°
2026-04-22 03:42 62.50131 113.85658 3910 ft 237 kts 250°
2026-04-22 03:43 62.49551 113.82302 4312 ft 239 kts 250°
2026-04-22 03:43 62.48961 113.78899 4714 ft 243 kts 250°
2026-04-22 03:43 62.48355 113.75461 5118 ft 245 kts 250°
2026-04-22 03:43 62.47742 113.72007 5540 ft 247 kts 250°
2026-04-22 03:44 62.47126 113.68531 5996 ft 249 kts 250°
2026-04-22 03:44 62.46503 113.65024 6430 ft 250 kts 249°
2026-04-22 03:44 62.45880 113.61540 6874 ft 252 kts 249°
2026-04-22 03:44 62.45240 113.57981 7327 ft 255 kts 249°
2026-04-22 03:45 62.44593 113.54388 7792 ft 258 kts 249°
2026-04-22 03:45 62.43945 113.50755 8244 ft 260 kts 249°
2026-04-22 03:45 62.43286 113.47090 8695 ft 263 kts 249°
2026-04-22 03:45 62.42618 113.43391 9144 ft 265 kts 248°
2026-04-22 03:46 62.41956 113.39709 9605 ft 267 kts 248°
2026-04-22 03:46 62.41273 113.35934 10083 ft 277 kts 248°
2026-04-22 03:46 62.40529 113.31858 10578 ft 304 kts 247°
2026-04-22 03:46 62.39760 113.27598 11037 ft 301 kts 247°
2026-04-22 03:47 62.38993 113.23368 11430 ft 302 kts 246°
2026-04-22 03:47 62.38229 113.19194 11816 ft 304 kts 246°
2026-04-22 03:47 62.37452 113.14936 12207 ft 306 kts 246°
2026-04-22 03:47 62.36674 113.10660 12598 ft 307 kts 246°
2026-04-22 03:48 62.35889 113.06358 12993 ft 309 kts 246°
2026-04-22 03:48 62.35095 113.02040 13390 ft 311 kts 246°
2026-04-22 03:48 62.34294 112.97682 13793 ft 313 kts 246°
2026-04-22 03:48 62.33494 112.93302 14198 ft 315 kts 245°
2026-04-22 03:49 62.32681 112.88895 14609 ft 317 kts 245°
2026-04-22 03:49 62.31853 112.84478 15024 ft 319 kts 245°
2026-04-22 03:49 62.31008 112.80042 15444 ft 321 kts 244°
2026-04-22 03:49 62.30165 112.75640 15862 ft 323 kts 244°
2026-04-22 03:50 62.29301 112.71149 16289 ft 325 kts 244°
2026-04-22 03:50 62.28423 112.66637 16722 ft 328 kts 243°
2026-04-22 03:50 62.27535 112.62098 17160 ft 330 kts 243°
2026-04-22 03:50 62.26644 112.57535 17601 ft 332 kts 243°
2026-04-22 03:51 62.25739 112.52945 18049 ft 334 kts 243°
2026-04-22 03:51 62.24835 112.48393 18486 ft 337 kts 243°
2026-04-22 03:51 62.23915 112.43746 18866 ft 340 kts 243°
2026-04-22 03:51 62.22988 112.39045 19219 ft 344 kts 243°
2026-04-22 03:52 62.22043 112.34297 19585 ft 347 kts 242°
2026-04-22 03:52 62.21092 112.29526 19958 ft 349 kts 243°
2026-04-22 03:52 62.20138 112.24734 20335 ft 351 kts 242°
2026-04-22 03:52 62.19166 112.19903 20717 ft 353 kts 242°
2026-04-22 03:53 62.18190 112.15056 21103 ft 355 kts 242°
2026-04-22 03:53 62.17224 112.10236 21487 ft 357 kts 242°
2026-04-22 03:53 62.16233 112.05333 21881 ft 360 kts 242°
2026-04-22 03:53 62.15226 112.00393 22283 ft 362 kts 242°
2026-04-22 03:54 62.14222 111.95429 22689 ft 364 kts 242°
2026-04-22 03:54 62.13230 111.90498 23094 ft 366 kts 242°
2026-04-22 03:54 62.12210 111.85493 23510 ft 368 kts 242°
2026-04-22 03:54 62.11177 111.80464 23933 ft 370 kts 242°
2026-04-22 03:55 62.10141 111.75399 24360 ft 373 kts 242°
2026-04-22 03:55 62.09100 111.70304 24791 ft 375 kts 242°
2026-04-22 03:55 62.08056 111.65238 25224 ft 378 kts 242°
2026-04-22 03:55 62.06993 111.60085 25669 ft 381 kts 242°
2026-04-22 03:56 62.05921 111.54886 26089 ft 384 kts 242°
2026-04-22 03:56 62.04835 111.49662 26484 ft 387 kts 242°
2026-04-22 03:56 62.03741 111.44398 26863 ft 389 kts 242°
2026-04-22 03:56 62.02637 111.39104 27247 ft 391 kts 242°
2026-04-22 03:57 62.01526 111.33793 27635 ft 393 kts 242°
2026-04-22 03:57 62.00406 111.28453 28024 ft 396 kts 242°
2026-04-22 03:57 61.99289 111.23147 28410 ft 399 kts 241°
2026-04-22 03:57 61.98148 111.17747 28806 ft 401 kts 241°
2026-04-22 03:58 61.96999 111.12290 29208 ft 404 kts 241°
2026-04-22 03:58 61.95837 111.06797 29615 ft 407 kts 241°
2026-04-22 03:58 61.94662 111.01275 30011 ft 411 kts 241°
2026-04-22 03:58 61.93484 110.95723 30398 ft 414 kts 241°
2026-04-22 03:59 61.92298 110.90140 30789 ft 416 kts 241°
2026-04-22 03:59 61.91112 110.84599 31185 ft 419 kts 241°
2026-04-22 03:59 61.89901 110.78943 31589 ft 422 kts 241°
2026-04-22 03:59 61.88677 110.73254 31938 ft 425 kts 241°
2026-04-22 04:00 61.87444 110.67526 32286 ft 428 kts 241°
2026-04-22 04:00 61.86196 110.61774 32634 ft 430 kts 241°
2026-04-22 04:00 61.84945 110.55997 32967 ft 433 kts 241°
2026-04-22 04:00 61.83681 110.50184 33270 ft 436 kts 241°
2026-04-22 04:01 61.82406 110.44343 33567 ft 437 kts 241°
2026-04-22 04:01 61.81117 110.38455 33771 ft 440 kts 241°
2026-04-22 04:01 61.79847 110.32660 33940 ft 439 kts 241°
2026-04-22 04:01 61.78558 110.26812 33968 ft 438 kts 241°
2026-04-22 04:02 61.75985 110.15161 33945 ft 436 kts 240°
2026-04-22 04:02 61.73411 110.03578 33937 ft 435 kts 240°
2026-04-22 04:03 61.70834 109.92007 33935 ft 435 kts 241°
2026-04-22 04:03 61.68259 109.80538 33935 ft 435 kts 240°
2026-04-22 04:04 61.65660 109.69011 33935 ft 436 kts 240°
2026-04-22 04:04 61.63046 109.57490 33935 ft 436 kts 240°
2026-04-22 04:05 61.60426 109.45993 33936 ft 435 kts 240°
2026-04-22 04:05 61.57807 109.34607 33936 ft 435 kts 240°
2026-04-22 04:06 61.55163 109.23137 33936 ft 436 kts 240°
2026-04-22 04:06 61.52514 109.11708 33937 ft 436 kts 240°
2026-04-22 04:07 61.49868 109.00355 33937 ft 436 kts 240°
2026-04-22 04:07 61.47186 108.88943 33938 ft 436 kts 240°
2026-04-22 04:08 61.44525 108.77600 33939 ft 436 kts 240°
2026-04-22 04:08 61.41837 108.66225 33939 ft 436 kts 240°
2026-04-22 04:09 61.39138 108.54870 33939 ft 436 kts 240°
2026-04-22 04:09 61.36427 108.43538 33940 ft 436 kts 240°
2026-04-22 04:10 61.33717 108.32272 33939 ft 437 kts 240°
2026-04-22 04:10 61.30983 108.20943 33939 ft 437 kts 240°
2026-04-22 04:11 61.28327 108.09557 33942 ft 438 kts 244°
2026-04-22 04:11 61.26246 107.97730 33939 ft 438 kts 249°
2026-04-22 04:12 61.24462 107.85570 33939 ft 440 kts 251°
2026-04-22 04:12 61.22778 107.73327 33941 ft 441 kts 251°
2026-04-22 04:13 61.21092 107.61071 33941 ft 441 kts 251°
2026-04-22 04:13 61.19430 107.48901 33942 ft 441 kts 251°
2026-04-22 04:14 61.17753 107.36676 33943 ft 441 kts 251°
2026-04-22 04:14 61.16059 107.24441 33944 ft 440 kts 251°
2026-04-22 04:15 61.14374 107.12305 33945 ft 440 kts 251°
2026-04-22 04:15 61.12669 107.00124 33945 ft 440 kts 251°
2026-04-22 04:16 61.10101 106.81956 33946 ft 440 kts 251°
2026-04-22 04:17 61.08371 106.69817 33946 ft 440 kts 251°
2026-04-22 04:17 61.06630 106.57687 33947 ft 440 kts 251°
2026-04-22 04:18 61.04890 106.45656 33948 ft 440 kts 251°
2026-04-22 04:18 61.03127 106.33573 33954 ft 439 kts 251°
2026-04-22 04:19 61.01356 106.21505 33963 ft 439 kts 251°
2026-04-22 04:19 60.99572 106.09435 33966 ft 439 kts 251°
2026-04-22 04:20 60.97791 105.97452 33967 ft 439 kts 251°
2026-04-22 04:20 60.95992 105.85445 33968 ft 438 kts 251°
2026-04-22 04:21 60.94182 105.73476 33968 ft 438 kts 251°
2026-04-22 04:21 60.92673 105.63538 33968 ft 438 kts 251°
2026-04-22 04:22 60.90546 105.49635 33968 ft 438 kts 251°
2026-04-22 04:22 60.89014 105.39689 33968 ft 438 kts 251°
2026-04-22 04:23 60.87167 105.27763 33968 ft 438 kts 251°
2026-04-22 04:23 60.85313 105.15877 33968 ft 437 kts 251°
2026-04-22 04:24 60.83443 105.03990 33968 ft 437 kts 251°
2026-04-22 04:24 60.81579 104.92206 33968 ft 437 kts 251°
2026-04-22 04:25 60.79686 104.80350 33968 ft 437 kts 251°
2026-04-22 04:25 60.77790 104.68529 33968 ft 437 kts 251°
2026-04-22 04:26 60.75899 104.56784 33968 ft 436 kts 251°
2026-04-22 04:26 60.73978 104.44992 33968 ft 436 kts 251°
2026-04-22 04:27 60.72047 104.33257 33968 ft 436 kts 251°
2026-04-22 04:27 60.70121 104.21505 33974 ft 436 kts 251°
2026-04-22 04:28 60.68182 104.09854 33977 ft 436 kts 251°
2026-04-22 04:28 60.66222 103.98141 33978 ft 436 kts 251°
2026-04-22 04:29 60.64254 103.86448 33979 ft 435 kts 251°
2026-04-22 04:29 60.62286 103.74873 33978 ft 435 kts 251°
2026-04-22 04:30 60.60300 103.63227 33978 ft 435 kts 251°
2026-04-22 04:30 60.58305 103.51613 33979 ft 435 kts 251°
2026-04-22 04:31 60.56310 103.40052 33979 ft 435 kts 250°
2026-04-22 04:31 60.54297 103.28458 33978 ft 434 kts 250°
2026-04-22 04:32 60.52277 103.16898 33978 ft 434 kts 250°
2026-04-22 04:32 60.50244 103.05420 33978 ft 434 kts 250°
2026-04-22 04:33 60.48201 102.93870 33978 ft 434 kts 251°
2026-04-22 04:33 60.46169 102.82421 33978 ft 433 kts 250°
2026-04-22 04:34 60.44121 102.70927 33978 ft 433 kts 250°
2026-04-22 04:34 60.42056 102.59448 33978 ft 433 kts 251°
2026-04-22 04:35 60.40001 102.48081 33978 ft 432 kts 250°
2026-04-22 04:35 60.37788 102.36773 33981 ft 432 kts 245°
2026-04-22 04:36 60.34838 102.26249 33977 ft 432 kts 239°
2026-04-22 04:36 60.31468 102.16164 33976 ft 433 kts 236°
2026-04-22 04:37 60.27938 102.06305 33977 ft 433 kts 235°
2026-04-22 04:37 60.24404 101.96584 33977 ft 433 kts 235°
2026-04-22 04:38 60.20809 101.86844 33977 ft 433 kts 235°
2026-04-22 04:38 60.17195 101.77124 33976 ft 433 kts 234°
2026-04-22 04:39 60.13601 101.67428 33977 ft 433 kts 235°
2026-04-22 04:39 60.10015 101.57817 33998 ft 433 kts 234°
2026-04-22 04:40 60.06396 101.48150 34007 ft 433 kts 234°
2026-04-22 04:40 60.02765 101.38486 34010 ft 434 kts 234°
2026-04-22 04:41 59.99153 101.28913 34012 ft 433 kts 235°
2026-04-22 04:41 59.95520 101.19301 34012 ft 431 kts 235°
2026-04-22 04:42 59.91893 101.09783 34011 ft 431 kts 235°
2026-04-22 04:42 59.88280 101.00328 34012 ft 430 kts 235°
2026-04-22 04:43 59.84630 100.90853 34012 ft 430 kts 235°
2026-04-22 04:43 59.81005 100.81450 34012 ft 430 kts 235°
2026-04-22 04:44 59.77356 100.72022 34012 ft 430 kts 235°
2026-04-22 04:44 59.73701 100.62612 34012 ft 430 kts 235°
2026-04-22 04:45 59.70063 100.53284 34012 ft 430 kts 235°
2026-04-22 04:45 59.66395 100.43907 34012 ft 430 kts 235°
2026-04-22 04:46 59.62723 100.34566 34012 ft 430 kts 235°
2026-04-22 04:46 59.59065 100.25293 34012 ft 430 kts 235°
2026-04-22 04:47 59.55375 100.15973 34012 ft 430 kts 234°
2026-04-22 04:47 59.51676 100.06673 34012 ft 430 kts 234°
2026-04-22 04:48 59.48003 99.97476 34013 ft 430 kts 235°
2026-04-22 04:48 59.44289 99.88248 34013 ft 430 kts 234°
2026-04-22 04:49 59.40575 99.79027 34013 ft 429 kts 235°
2026-04-22 04:49 59.36878 99.69887 34014 ft 429 kts 235°
2026-04-22 04:50 59.33162 99.60724 34014 ft 428 kts 235°
2026-04-22 04:50 59.29445 99.51593 34014 ft 428 kts 235°
2026-04-22 04:51 59.25719 99.42480 34015 ft 428 kts 235°
2026-04-22 04:51 59.22014 99.33453 34015 ft 428 kts 235°
2026-04-22 04:52 59.18284 99.24396 34015 ft 427 kts 235°
2026-04-22 04:52 59.14578 99.15432 34016 ft 426 kts 235°
2026-04-22 04:53 59.10840 99.06428 34016 ft 426 kts 235°
2026-04-22 04:53 59.07096 98.97447 34018 ft 427 kts 235°
2026-04-22 04:54 59.03367 98.88578 34018 ft 426 kts 235°
2026-04-22 04:54 58.99613 98.79649 34018 ft 426 kts 235°
2026-04-22 04:55 58.95888 98.70804 34019 ft 425 kts 235°
2026-04-22 04:55 58.92128 98.61928 34020 ft 425 kts 235°
2026-04-22 04:56 58.88368 98.53072 34020 ft 425 kts 235°
2026-04-22 04:56 58.84612 98.44251 34021 ft 424 kts 235°
2026-04-22 04:57 58.80878 98.35525 34022 ft 424 kts 236°
2026-04-22 04:57 58.77113 98.26755 34023 ft 423 kts 236°
2026-04-22 04:58 58.73353 98.18038 34024 ft 422 kts 236°
2026-04-22 04:58 58.69608 98.09385 34025 ft 422 kts 236°
2026-04-22 04:59 58.65847 98.00727 34026 ft 421 kts 236°
2026-04-22 04:59 58.62081 97.92123 34027 ft 421 kts 236°
2026-04-22 05:00 58.58309 97.83523 34029 ft 420 kts 236°
2026-04-22 05:00 58.54563 97.75004 34030 ft 420 kts 236°
2026-04-22 05:01 58.50789 97.66441 34031 ft 420 kts 236°
2026-04-22 05:01 58.47040 97.57967 34033 ft 419 kts 236°
2026-04-22 05:02 58.43258 97.49450 34034 ft 420 kts 236°
2026-04-22 05:02 58.39539 97.40835 34038 ft 419 kts 238°
2026-04-22 05:03 58.36167 97.31784 34037 ft 418 kts 242°
2026-04-22 05:03 58.32977 97.22564 34038 ft 415 kts 243°
2026-04-22 05:04 58.29853 97.13400 34040 ft 415 kts 243°
2026-04-22 05:04 58.26720 97.04195 34043 ft 415 kts 243°
2026-04-22 05:05 58.23577 96.94984 34045 ft 415 kts 243°
2026-04-22 05:05 58.20456 96.85865 34046 ft 414 kts 243°
2026-04-22 05:06 58.17320 96.76676 34049 ft 414 kts 243°
2026-04-22 05:06 58.14190 96.67545 34051 ft 413 kts 243°
2026-04-22 05:07 58.11057 96.58435 34053 ft 412 kts 243°
2026-04-22 05:07 58.07945 96.49414 34055 ft 412 kts 243°
2026-04-22 05:08 58.04806 96.40357 34057 ft 411 kts 243°
2026-04-22 05:08 58.01676 96.31335 34060 ft 410 kts 244°
2026-04-22 05:09 57.98614 96.22240 34063 ft 409 kts 245°
2026-04-22 05:09 57.95578 96.13179 34064 ft 409 kts 244°
2026-04-22 05:10 57.92551 96.04172 34066 ft 409 kts 244°
2026-04-22 05:10 57.89500 95.95134 34069 ft 409 kts 244°
2026-04-22 05:11 57.86458 95.86163 34071 ft 409 kts 245°
2026-04-22 05:11 57.83401 95.77147 34073 ft 408 kts 244°
2026-04-22 05:12 57.80370 95.68220 34076 ft 408 kts 244°
2026-04-22 05:12 57.77315 95.59263 34078 ft 407 kts 245°
2026-04-22 05:13 57.74778 95.51848 34080 ft 406 kts 245°
2026-04-22 05:13 57.71729 95.42961 34082 ft 405 kts 245°
2026-04-22 05:14 57.68679 95.34105 34085 ft 404 kts 245°
2026-04-22 05:14 57.65628 95.25284 34087 ft 403 kts 245°
2026-04-22 05:15 57.62587 95.16520 34089 ft 402 kts 245°
2026-04-22 05:15 57.59567 95.07851 34092 ft 401 kts 245°
2026-04-22 05:16 57.56523 94.99148 34094 ft 400 kts 245°
2026-04-22 05:16 57.53460 94.90499 34096 ft 399 kts 245°
2026-04-22 05:17 57.50418 94.81878 34097 ft 398 kts 245°
2026-04-22 05:17 57.47400 94.73349 33895 ft 392 kts 245°
2026-04-22 05:17 57.45907 94.69125 33569 ft 389 kts 245°
2026-04-22 05:18 57.42951 94.60815 32850 ft 383 kts 246°
2026-04-22 05:18 57.41489 94.56703 32483 ft 379 kts 246°
2026-04-22 05:18 57.40035 94.52635 32112 ft 376 kts 246°
2026-04-22 05:19 57.38595 94.48596 31734 ft 372 kts 246°
2026-04-22 05:19 57.37171 94.44611 31355 ft 369 kts 246°
2026-04-22 05:19 57.35772 94.40710 30975 ft 365 kts 246°
2026-04-22 05:19 57.34369 94.36806 30586 ft 361 kts 246°
2026-04-22 05:20 57.32979 94.32942 30195 ft 357 kts 247°
2026-04-22 05:20 57.31608 94.29138 29808 ft 352 kts 247°
2026-04-22 05:20 57.30257 94.25396 29411 ft 347 kts 247°
2026-04-22 05:20 57.28922 94.21715 29003 ft 342 kts 247°
2026-04-22 05:21 57.27629 94.18133 28588 ft 337 kts 247°
2026-04-22 05:21 57.26331 94.14551 28156 ft 332 kts 247°
2026-04-22 05:21 57.25053 94.11030 27715 ft 327 kts 247°
2026-04-22 05:21 57.23794 94.07571 27269 ft 322 kts 247°
2026-04-22 05:22 57.22548 94.04153 26806 ft 317 kts 247°
2026-04-22 05:22 57.21338 94.00835 26341 ft 313 kts 248°
2026-04-22 05:22 57.20125 93.97523 25863 ft 309 kts 248°
2026-04-22 05:22 57.18926 93.94282 25469 ft 302 kts 248°
2026-04-22 05:23 57.17742 93.91053 25095 ft 304 kts 248°
2026-04-22 05:23 57.16574 93.87873 24739 ft 302 kts 248°
2026-04-22 05:23 57.15395 93.84677 24378 ft 300 kts 248°
2026-04-22 05:23 57.14229 93.81512 24016 ft 297 kts 248°
2026-04-22 05:24 57.13076 93.78372 23656 ft 294 kts 248°
2026-04-22 05:24 57.11924 93.75267 23292 ft 292 kts 248°
2026-04-22 05:24 57.10784 93.72183 22929 ft 290 kts 248°
2026-04-22 05:24 57.09651 93.69107 22561 ft 289 kts 248°
2026-04-22 05:25 57.08519 93.66054 22193 ft 288 kts 248°
2026-04-22 05:25 57.07403 93.63049 21831 ft 286 kts 248°
2026-04-22 05:25 57.06284 93.60025 21468 ft 285 kts 247°
2026-04-22 05:25 57.05165 93.57021 21105 ft 284 kts 247°
2026-04-22 05:26 57.04058 93.54037 20749 ft 282 kts 247°
2026-04-22 05:26 57.02965 93.51094 20384 ft 281 kts 247°
2026-04-22 05:26 57.01859 93.48131 20013 ft 280 kts 246°
2026-04-22 05:26 57.00760 93.45185 19655 ft 279 kts 246°
2026-04-22 05:27 56.99664 93.42253 19294 ft 277 kts 246°
2026-04-22 05:27 56.98578 93.39337 18937 ft 276 kts 246°
2026-04-22 05:27 56.97493 93.36436 18586 ft 275 kts 246°
2026-04-22 05:27 56.96414 93.33563 18218 ft 273 kts 246°
2026-04-22 05:28 56.95351 93.30729 17869 ft 272 kts 246°
2026-04-22 05:28 56.94276 93.27870 17505 ft 271 kts 245°
2026-04-22 05:28 56.93201 93.25027 17148 ft 271 kts 245°
2026-04-22 05:28 56.92124 93.22176 16789 ft 270 kts 244°
2026-04-22 05:29 56.91023 93.19430 16438 ft 271 kts 242°
2026-04-22 05:29 56.89839 93.16739 16078 ft 271 kts 239°
2026-04-22 05:29 56.88614 93.14100 15707 ft 272 kts 238°
2026-04-22 05:29 56.87363 93.11493 15339 ft 272 kts 237°
2026-04-22 05:30 56.86097 93.08915 14979 ft 272 kts 236°
2026-04-22 05:30 56.84820 93.06345 14617 ft 272 kts 236°
2026-04-22 05:30 56.83566 93.03817 14263 ft 272 kts 236°
2026-04-22 05:30 56.82293 93.01258 13909 ft 271 kts 235°
2026-04-22 05:31 56.81017 92.98721 13558 ft 271 kts 234°
2026-04-22 05:31 56.79734 92.96205 13205 ft 270 kts 234°
2026-04-22 05:31 56.78464 92.93706 12852 ft 266 kts 234°
2026-04-22 05:31 56.77221 92.91241 12489 ft 262 kts 234°
2026-04-22 05:32 56.76011 92.88831 12122 ft 260 kts 233°
2026-04-22 05:32 56.74788 92.86413 11746 ft 259 kts 233°
2026-04-22 05:32 56.73563 92.84015 11368 ft 258 kts 232°
2026-04-22 05:32 56.72340 92.81613 10987 ft 258 kts 232°
2026-04-22 05:33 56.71117 92.79196 10603 ft 259 kts 231°
2026-04-22 05:33 56.69891 92.76790 10219 ft 259 kts 231°
2026-04-22 05:33 56.68662 92.74385 9844 ft 260 kts 230°
2026-04-22 05:33 56.67433 92.71971 9469 ft 260 kts 229°
2026-04-22 05:34 56.66157 92.69623 9099 ft 261 kts 221°
2026-04-22 05:34 56.64576 92.68007 8717 ft 262 kts 202°
2026-04-22 05:34 56.62848 92.67094 8365 ft 262 kts 193°
2026-04-22 05:34 56.61051 92.66546 8015 ft 262 kts 187°
2026-04-22 05:35 56.59238 92.66258 7660 ft 261 kts 184°
2026-04-22 05:35 56.57427 92.66131 7308 ft 260 kts 181°
2026-04-22 05:35 56.55622 92.66102 6953 ft 258 kts 180°
2026-04-22 05:35 56.53832 92.66130 6600 ft 256 kts 179°
2026-04-22 05:36 56.52047 92.66187 6248 ft 254 kts 178°
2026-04-22 05:36 56.50303 92.66246 5903 ft 253 kts 178°
2026-04-22 05:36 56.48546 92.66313 5553 ft 251 kts 178°
2026-04-22 05:36 56.46803 92.66394 5219 ft 249 kts 178°
2026-04-22 05:37 56.45074 92.66478 4970 ft 247 kts 178°
2026-04-22 05:37 56.43351 92.66563 4763 ft 247 kts 178°
2026-04-22 05:37 56.41628 92.66655 4572 ft 247 kts 178°
2026-04-22 05:37 56.39935 92.66745 4390 ft 246 kts 178°
2026-04-22 05:38 56.38237 92.66832 4200 ft 241 kts 178°
2026-04-22 05:38 56.36573 92.66926 4025 ft 237 kts 178°
2026-04-22 05:38 56.34918 92.67018 3847 ft 237 kts 178°
2026-04-22 05:38 56.33265 92.67106 3679 ft 236 kts 178°
2026-04-22 05:39 56.31627 92.67198 3538 ft 235 kts 178°
2026-04-22 05:39 56.30010 92.67291 3408 ft 235 kts 177°
2026-04-22 05:39 56.28411 92.67817 3275 ft 234 kts 159°
2026-04-22 05:39 56.27033 92.69338 3131 ft 233 kts 137°
2026-04-22 05:40 56.26016 92.71589 3034 ft 232 kts 123°
2026-04-22 05:40 56.25184 92.74059 2990 ft 229 kts 118°
2026-04-22 05:40 56.24453 92.76528 2987 ft 215 kts 116°
2026-04-22 05:40 56.23824 92.78823 2978 ft 198 kts 114°
2026-04-22 05:41 56.23263 92.80962 3038 ft 178 kts 114°
2026-04-22 05:41 56.22558 92.82598 3032 ft 160 kts 137°
2026-04-22 05:41 56.21513 92.83374 3021 ft 166 kts 167°
2026-04-22 05:41 56.20355 92.83231 3039 ft 169 kts 189°
2026-04-22 05:42 56.19207 92.82695 3040 ft 170 kts 195°
2026-04-22 05:42 56.18116 92.82054 3012 ft 159 kts 198°
2026-04-22 05:42 56.17126 92.81402 3008 ft 147 kts 200°
2026-04-22 05:42 56.16190 92.80746 3012 ft 142 kts 201°
2026-04-22 05:43 56.15261 92.80056 3020 ft 145 kts 202°
2026-04-22 05:43 56.14324 92.79330 3025 ft 147 kts 203°
2026-04-22 05:43 56.13384 92.78600 3023 ft 147 kts 202°
2026-04-22 05:43 56.12450 92.77846 3018 ft 147 kts 206°
2026-04-22 05:44 56.11747 92.76547 2991 ft 147 kts 238°
2026-04-22 05:44 56.11562 92.74788 3001 ft 147 kts 272°
2026-04-22 05:44 56.11802 92.73006 3036 ft 147 kts 288°
2026-04-22 05:44 56.12132 92.71310 3016 ft 140 kts 291°
2026-04-22 05:45 56.12473 92.69693 2992 ft 138 kts 293°
2026-04-22 05:45 56.12827 92.68109 2837 ft 134 kts 294°
2026-04-22 05:45 56.13182 92.66588 2661 ft 134 kts 295°
2026-04-22 05:45 56.13546 92.65043 2501 ft 135 kts 294°
2026-04-22 05:46 56.13915 92.63477 2317 ft 138 kts 295°
2026-04-22 05:46 56.14295 92.61882 2139 ft 140 kts 294°
2026-04-22 05:46 56.14682 92.60248 1958 ft 143 kts 294°
2026-04-22 05:46 56.15081 92.58588 1767 ft 147 kts 294°
2026-04-22 05:47 56.15480 92.56906 1569 ft 150 kts 294°
2026-04-22 05:47 56.15893 92.55174 1360 ft 151 kts 294°
2026-04-22 05:47 56.16299 92.53467 1158 ft 146 kts 294°
2026-04-22 05:47 56.16689 92.51822 963 ft 140 kts 294°
2026-04-22 05:48 56.17048 92.50348 946 ft 117 kts 291°
2026-04-22 05:48 56.17310 92.49234 946 ft 78 kts 293°
2026-04-22 05:48 56.17495 92.48460 946 ft 56 kts 293°
2026-04-22 05:48 56.17635 92.47877 946 ft 46 kts 292°
2026-04-22 05:49 56.17750 92.47397 945 ft 39 kts 295°
2026-04-22 05:49 56.17844 92.46976 945 ft 34 kts 292°
2026-04-22 05:49 56.17925 92.46658 945 ft 22 kts 310°
2026-04-22 05:49 56.18029 92.46653 945 ft 13 kts 22°
2026-04-22 05:50 56.18115 92.46718 946 ft 14 kts 22°
2026-04-22 05:50 56.18206 92.46786 945 ft 14 kts 22°
2026-04-22 05:50 56.18291 92.46820 945 ft 11 kts 346°
2026-04-22 05:50 56.18359 92.46853 945 ft 9 kts 24°
2026-04-22 05:51 56.18365 92.46857 945 ft 0 kts 24°